When you browse on this site, cookies collect data to enhance your experience and personalize the content and advertising you see.
Visit our Privacy Policy to learn more. By continuing to use the site, you agree to this use of cookies and data.
  • In Hungary
  • List of Countries
  • For 7 days
  • Water Temperature
  • Satellite Maps
  • Weather Map
  • News
  • Weather Widgets
  • user-avatar
    Login

    Hourly Weather Perugia

    Today, 19 November, Monday

    Time Temperature Precipitation Wind Pressure Humidity
    00:00 +3°C° 0 mm 2 mps 725 mmHg 89%
    01:00 +2°C° 0 mm 2 mps 724 mmHg 90%
    02:00 +2°C° 0 mm 2 mps 724 mmHg 90%
    03:00 +3°C° 0 mm 1 mps 724 mmHg 90%
    04:00 +3°C° 0 mm 1 mps 723 mmHg 90%
    05:00 +3°C° 0 mm 1 mps 723 mmHg 90%
    06:00 +3°C° 0 mm 1 mps 723 mmHg 90%
    07:00 +2°C° 0 mm 2 mps 722 mmHg 89%
    08:00 +3°C° 0 mm 2 mps 722 mmHg 82%
    09:00 +5°C° 0 mm 2 mps 723 mmHg 75%
    10:00 +7°C° 0 mm 2 mps 723 mmHg 68%
    11:00 +8°C° 0 mm 2 mps 722 mmHg 66%
    12:00 +8°C° 0 mm 2 mps 722 mmHg 63%
    13:00 +9°C° 0 mm 2 mps 722 mmHg 61%
    14:00 +9°C° 0.2 mm 2 mps 721 mmHg 66%
    15:00 +8°C° 0.2 mm 2 mps 721 mmHg 71%
    16:00 +7°C° 0.2 mm 2 mps 720 mmHg 75%
    17:00 +7°C° 1.4 mm 2 mps 719 mmHg 80%
    18:00 +6°C° 1.4 mm 2 mps 719 mmHg 85%
    19:00 +6°C° 1.4 mm 2 mps 718 mmHg 90%
    20:00 +6°C° 1.6 mm 2 mps 718 mmHg 91%
    21:00 +6°C° 1.6 mm 2 mps 717 mmHg 92%
    22:00 +6°C° 1.6 mm 2 mps 717 mmHg 92%
    23:00 +6°C° 2.3 mm 2 mps 716 mmHg 92%

    Tomorrow, 20 November, Tuesday

    Time Temperature Precipitation Wind Pressure Humidity
    00:00 +6°C° 2.3 mm 2 mps 716 mmHg 93%
    01:00 +7°C° 2.3 mm 2 mps 715 mmHg 93%
    02:00 +7°C° 1.6 mm 2 mps 715 mmHg 93%
    03:00 +7°C° 1.6 mm 2 mps 715 mmHg 94%
    04:00 +8°C° 1.6 mm 2 mps 715 mmHg 94%
    05:00 +8°C° 0.6 mm 2 mps 716 mmHg 94%
    06:00 +8°C° 0.6 mm 2 mps 716 mmHg 94%
    07:00 +8°C° 0.6 mm 2 mps 717 mmHg 94%
    08:00 +8°C° 1.1 mm 2 mps 718 mmHg 94%
    09:00 +9°C° 1.1 mm 2 mps 718 mmHg 93%
    10:00 +9°C° 1.1 mm 2 mps 719 mmHg 92%
    11:00 +9°C° 3.3 mm 2 mps 719 mmHg 91%
    12:00 +8°C° 3.3 mm 2 mps 719 mmHg 91%
    13:00 +8°C° 3.3 mm 2 mps 720 mmHg 90%
    14:00 +8°C° 2.3 mm 2 mps 720 mmHg 90%
    15:00 +8°C° 2.3 mm 2 mps 720 mmHg 91%
    16:00 +7°C° 2.3 mm 2 mps 720 mmHg 91%
    17:00 +7°C° 0.6 mm 2 mps 721 mmHg 91%
    18:00 +8°C° 0.6 mm 1 mps 721 mmHg 92%
    19:00 +7°C° 0.6 mm 1 mps 722 mmHg 92%
    20:00 +7°C° 0.1 mm 1 mps 722 mmHg 92%
    21:00 +7°C° 0.1 mm 1 mps 723 mmHg 92%
    22:00 +6°C° 0.1 mm 1 mps 723 mmHg 92%
    23:00 +6°C° 0 mm 1 mps 723 mmHg 92%

    Day after tomorrow, 21 November, Wednesday

    Time Temperature Precipitation Wind Pressure Humidity
    00:00 +6°C° 0 mm 1 mps 724 mmHg 91%
    01:00 +6°C° 0 mm 1 mps 724 mmHg 90%
    02:00 +6°C° 0 mm 1 mps 724 mmHg 90%
    03:00 +5°C° 0 mm 1 mps 724 mmHg 89%
    04:00 +5°C° 0 mm 1 mps 724 mmHg 88%
    05:00 +5°C° 0 mm 1 mps 725 mmHg 87%
    06:00 +5°C° 0 mm 1 mps 725 mmHg 86%
    07:00 +5°C° 0 mm 1 mps 725 mmHg 84%
    08:00 +7°C° 0 mm 1 mps 726 mmHg 78%
    09:00 +9°C° 0 mm 1 mps 727 mmHg 72%
    10:00 +11°C° 0 mm 1 mps 727 mmHg 65%
    11:00 +12°C° 0 mm 1 mps 727 mmHg 61%
    12:00 +13°C° 0 mm 1 mps 727 mmHg 57%
    13:00 +14°C° 0 mm 1 mps 727 mmHg 53%
    14:00 +14°C° 0 mm 1 mps 727 mmHg 58%
    15:00 +13°C° 0 mm 1 mps 727 mmHg 63%
    16:00 +12°C° 0 mm 1 mps 727 mmHg 69%
    17:00 +12°C° 0 mm 1 mps 728 mmHg 71%
    18:00 +11°C° 0 mm 1 mps 728 mmHg 73%
    19:00 +11°C° 0 mm 1 mps 728 mmHg 76%
    20:00 +10°C° 0 mm 1 mps 728 mmHg 78%
    21:00 +10°C° 0 mm 1 mps 729 mmHg 80%
    22:00 +10°C° 0 mm 1 mps 729 mmHg 83%
    23:00 +10°C° 0.2 mm 1 mps 729 mmHg 85%

    22 November, Thursday

    Time Temperature Precipitation Wind Pressure Humidity
    00:00 +9°C° 0.2 mm 1 mps 729 mmHg 88%
    01:00 +9°C° 0.2 mm 1 mps 729 mmHg 90%
    02:00 +9°C° 0.2 mm 1 mps 729 mmHg 91%
    03:00 +9°C° 0.2 mm 1 mps 729 mmHg 92%
    04:00 +10°C° 0.2 mm 1 mps 729 mmHg 93%
    05:00 +9°C° 0 mm 1 mps 729 mmHg 94%
    06:00 +9°C° 0 mm 1 mps 730 mmHg 94%
    07:00 +9°C° 0 mm 1 mps 730 mmHg 94%
    08:00 +11°C° 0 mm 1 mps 730 mmHg 90%
    09:00 +12°C° 0 mm 1 mps 731 mmHg 87%
    10:00 +13°C° 0 mm 1 mps 731 mmHg 83%
    11:00 +14°C° 0.1 mm 1 mps 731 mmHg 78%
    12:00 +14°C° 0.1 mm 1 mps 731 mmHg 73%
    13:00 +15°C° 0.1 mm 1 mps 731 mmHg 68%
    14:00 +15°C° 0.2 mm 1 mps 731 mmHg 71%
    15:00 +14°C° 0.2 mm 1 mps 732 mmHg 74%
    16:00 +13°C° 0.2 mm 1 mps 732 mmHg 78%
    17:00 +11°C° 0 mm 0 mps 732 mmHg 81%
    18:00 +10°C° 0 mm 0 mps 732 mmHg 84%
    19:00 +9°C° 0 mm 0 mps 732 mmHg 88%
    20:00 +9°C° 0 mm 0 mps 733 mmHg 88%
    21:00 +9°C° 0 mm 0 mps 733 mmHg 88%
    22:00 +8°C° 0 mm 0 mps 733 mmHg 88%
    23:00 +8°C° 0 mm 0 mps 733 mmHg 88%

    23 November, Friday

    Time Temperature Precipitation Wind Pressure Humidity
    00:00 +8°C° 0 mm 0 mps 734 mmHg 88%
    01:00 +8°C° 0 mm 0 mps 734 mmHg 87%
    02:00 +8°C° 0 mm 1 mps 734 mmHg 87%
    03:00 +8°C° 0 mm 1 mps 734 mmHg 87%
    04:00 +8°C° 0 mm 1 mps 734 mmHg 87%
    05:00 +8°C° 0 mm 1 mps 734 mmHg 87%
    06:00 +8°C° 0 mm 1 mps 735 mmHg 87%
    07:00 +8°C° 0 mm 1 mps 735 mmHg 87%
    08:00 +8°C° 0 mm 0 mps 735 mmHg 81%
    09:00 +10°C° 0 mm 0 mps 736 mmHg 76%
    10:00 +12°C° 0 mm 0 mps 736 mmHg 70%
    11:00 +13°C° 0 mm 0 mps 736 mmHg 66%
    12:00 +14°C° 0 mm 0 mps 736 mmHg 62%
    13:00 +16°C° 0 mm 1 mps 736 mmHg 58%
    14:00 +15°C° 0 mm 1 mps 736 mmHg 62%
    15:00 +13°C° 0 mm 0 mps 735 mmHg 66%
    16:00 +12°C° 0 mm 0 mps 735 mmHg 70%
    17:00 +12°C° 0 mm 1 mps 735 mmHg 73%
    18:00 +11°C° 0 mm 1 mps 735 mmHg 77%
    19:00 +10°C° 0 mm 1 mps 735 mmHg 81%
    20:00 +10°C° 0 mm 1 mps 735 mmHg 81%
    21:00 +10°C° 0 mm 1 mps 735 mmHg 81%
    22:00 +9°C° 0 mm 1 mps 735 mmHg 81%
    23:00 +9°C° 0 mm 1 mps 735 mmHg 80%

    24 November, Saturday

    Time Temperature Precipitation Wind Pressure Humidity
    00:00 +9°C° 0 mm 1 mps 735 mmHg 78%
    01:00 +9°C° 0 mm 1 mps 735 mmHg 77%
    02:00 +9°C° 0 mm 1 mps 734 mmHg 76%
    03:00 +9°C° 0 mm 1 mps 734 mmHg 76%
    04:00 +9°C° 0 mm 1 mps 734 mmHg 75%
    05:00 +9°C° 0 mm 1 mps 734 mmHg 74%
    06:00 +9°C° 0 mm 1 mps 734 mmHg 74%
    07:00 +8°C° 0 mm 2 mps 734 mmHg 73%
    08:00 +10°C° 0 mm 2 mps 734 mmHg 70%
    09:00 +12°C° 0 mm 2 mps 734 mmHg 67%
    10:00 +14°C° 0 mm 2 mps 735 mmHg 64%
    11:00 +14°C° 0 mm 2 mps 734 mmHg 65%
    12:00 +14°C° 0 mm 3 mps 734 mmHg 66%
    13:00 +16°C° 0 mm 3 mps 734 mmHg 67%
    14:00 +14°C° 0 mm 3 mps 733 mmHg 71%
    15:00 +15°C° 0 mm 2 mps 733 mmHg 76%
    16:00 +14°C° 0 mm 2 mps 733 mmHg 80%
    17:00 +14°C° 0 mm 2 mps 733 mmHg 83%
    18:00 +13°C° 0 mm 2 mps 733 mmHg 86%
    19:00 +12°C° 0 mm 2 mps 732 mmHg 89%
    20:00 +12°C° 0 mm 2 mps 732 mmHg 88%
    21:00 +12°C° 0 mm 2 mps 732 mmHg 87%
    22:00 +10°C° 0 mm 2 mps 732 mmHg 86%
    23:00 +12°C° 0 mm 2 mps 732 mmHg 84%
    Show more